Temp
82 76 72 77 79 80 80 79 76 83 89 83 80 82 85 92 91 90 90 91 91 92 96 96 95 93 91 88 85 84 83 82 83 84 85 85 85 86 86 86 83 81 80 80
78 71 80 84 83 79 77 75 75 81 86 81 80 79 86 90 90 90 90 91 92 92 93 94 93 91 89 86 84 83 82 80 81 85 85 87 85 87 85 85 80 79 78 77
73 78 82 80 77 73 74 72 74 75 81 81 77 75 80 87 90 91 92 93 93 93 91 92 91 89 89 85 83 82 82 80 81 85 83 80 81 80 81 83 83 81 79 78
77 82 77 76 73 76 68 79 77 76 74 67 78 63 76 82 84 86 89 90 92 93 93 93 92 89 88 87 86 84 82 80 81 81 82 79 80 80 83 80 83 78 79 78
73 76 75 71 74 79 73 81 77 75 72 71 72 68 75 84 79 83 87 89 91 93 93 93 94 93 92 89 88 84 81 81 81 80 80 79 76 83 83 82 77 76 77 78
76 85 80 77 80 80 79 75 74 74 72 60 69 70 72 78 81 84 88 90 91 94 95 96 97 97 92 92 90 85 81 79 80 78 76 76 76 75 76 77 74 78 80 80
72 74 80 80 74 77 74 68 56 56 58 56 72 69 72 81 83 87 87 89 89 91 92 93 93 95 93 90 89 88 83 78 79 77 77 76 74 73 72 72 76 74 76 78
63 60 74 79 74 71 71 68 59 47 53 62 73 63 73 85 87 86 87 88 88 88 91 92 93 93 95 92 89 88 83 79 79 78 77 76 75 77 77 77 76 75 74 75
62 63 79 80 79 76 70 65 74 63 66 62 69 72 78 80 81 83 83 84 85 86 85 88 90 92 93 92 87 86 84 81 80 79 78 76 76 74 75 73 72 73 73 74
66 57 72 77 78 78 73 77 62 63 49 48 62 65 67 73 76 80 81 82 84 84 85 86 88 88 90 91 87 86 85 82 82 80 78 78 76 75 74 72 71 70 70 70
67 62 63 72 67 66 67 65 67 66 62 52 52 62 78 77 79 78 81 83 84 84 86 86 87 87 88 89 89 85 84 84 82 81 79 77 76 75 74 72 71 71 70 69
67 61 54 62 74 77 72 67 67 54 53 60 60 62 81 79 81 80 81 83 84 86 86 88 87 86 87 87 87 85 84 85 84 82 79 77 76 74 72 71 71 71 69 70
56 54 47 54 64 69 63 68 67 65 62 56 53 60 80 81 80 81 80 82 83 83 85 87 88 86 87 87 87 87 84 84 85 83 81 77 74 73 71 71 70 70 69 69
54 51 49 47 56 63 59 62 66 62 54 55 59 64 72 76 76 78 79 81 83 83 84 86 87 87 87 87 87 87 87 86 84 83 80 77 74 73 72 71 70 69 69 68
53 44 50 54 57 59 58 57 60 53 60 56 61 63 70 75 75 74 72 79 81 81 83 83 84 86 87 86 86 86 87 86 84 81 79 75 74 73 72 71 70 69 68 68
53 43 47 45 54 55 53 56 58 60 60 62 63 62 73 76 78 76 76 77 77 78 81 84 84 85 85 86 86 85 83 83 83 79 76 75 74 73 71 70 69 68 67 66
44 42 39 35 48 49 41 51 56 58 61 61 56 64 72 71 72 74 75 76 76 78 79 81 83 84 84 85 85 84 82 81 78 76 75 74 73 72 71 70 68 65 63 61
43 41 41 36 40 26 47 59 60 56 58 62 62 64 67 69 72 75 77 75 75 76 77 79 82 82 85 86 85 83 81 79 76 73 73 73 72 71 69 67 65 63 61 57
51 44 35 29 32 40 47 53 54 53 52 61 60 62 65 68 69 68 74 76 76 75 76 78 81 81 83 83 83 80 77 75 72 71 71 72 70 67 66 64 62 60 57 57
50 47 37 35 26 24 42 54 60 59 41 60 61 60 60 63 55 63 72 72 73 74 73 73 76 80 80 80 79 74 72 71 70 71 70 69 67 64 61 58 57 56 55 55
39 39 31 30 28 37 51 57 60 38 43 59 60 62 62 58 62 65 69 69 71 72 72 74 74 76 78 78 73 69 69 69 70 69 67 66 65 61 57 55 54 54 55 55
35 31 32 33 26 25 53 53 44 52 56 58 58 60 59 63 64 66 64 64 68 70 72 74 74 74 75 71 68 67 66 69 67 65 64 63 60 58 58 55 56 56 55 54
31 40 35 37 35 48 52 49 52 47 45 54 55 53 54 61 62 63 63 63 63 68 68 68 72 68 67 66 67 65 65 65 64 62 58 56 57 59 60 57 55 55 57 56
45 50 39 40 47 50 53 57 59 56 49 56 57 58 59 58 60 60 62 60 64 62 65 70 66 63 62 65 65 64 64 63 61 57 56 58 58 58 58 58 58 57 55 53
45 46 43 43 48 52 54 57 56 54 60 60 61 62 61 63 60 61 59 62 64 63 60 62 62 63 63 64 63 63 62 61 58 55 56 57 59 57 56 57 57 55 54 50
47 42 37 38 49 49 51 57 59 58 58 59 60 59 63 62 59 63 61 64 63 62 55 58 62 63 64 64 61 61 60 57 55 55 56 56 56 57 56 55 56 50 44 43
MSLP
1003.79 1003.18 1001.99 1001.99 1001.70 1001.20 1000.19 999.61 999.03 998.28 998.26 999.19 999.65 999.46 999.79 999.28 1000.08 1000.75 1001.44 1001.78 1002.57 1003.36 1004.22 1005.35 1006.48 1007.68 1009.00 1010.08 1011.12 1011.75 1012.40 1013.17 1013.70 1013.88 1013.76 1013.73 1013.87 1014.38 1014.68 1014.95 1015.47 1015.80 1016.02 1016.02
1002.67 1001.97 1001.66 1001.14 1000.90 1000.99 1000.86 999.94 999.44 999.03 998.95 999.50 999.67 999.45 999.40 999.13 999.32 1000.29 1000.73 1001.14 1001.68 1002.59 1003.62 1004.52 1005.89 1007.28 1008.47 1009.65 1010.66 1011.53 1012.24 1013.03 1013.46 1013.50 1013.58 1013.64 1014.09 1014.31 1014.76 1014.98 1015.59 1015.99 1016.14 1016.21
1001.47 1000.84 1000.83 1000.88 1000.81 1001.36 1001.01 1000.40 999.88 999.51 999.35 1000.03 1000.69 999.65 999.06 998.96 999.10 999.50 999.89 1000.43 1001.06 1001.60 1002.76 1003.71 1004.93 1006.59 1007.81 1009.02 1010.16 1011.05 1011.88 1012.64 1013.16 1013.07 1013.77 1014.42 1014.69 1014.82 1014.74 1014.53 1014.71 1015.17 1015.78 1015.96
1000.99 1001.04 1000.89 1001.10 1001.14 1001.24 1000.45 1000.51 1000.48 1000.02 999.76 999.41 1000.51 998.83 998.27 998.46 998.25 998.89 999.39 1000.07 1000.57 1000.96 1002.00 1002.97 1003.98 1005.46 1006.94 1008.11 1009.59 1010.74 1011.55 1012.18 1012.81 1013.16 1013.34 1013.76 1013.82 1013.82 1014.07 1014.75 1014.70 1015.43 1015.38 1015.50
1000.61 1000.76 1000.69 1001.07 1000.79 1000.78 1000.61 1000.35 1000.30 1000.58 1000.02 1000.24 999.35 998.83 997.15 996.34 997.13 997.90 998.76 999.52 999.98 1000.47 1001.27 1002.14 1002.92 1004.13 1005.86 1007.54 1008.70 1010.14 1011.17 1011.79 1012.24 1012.88 1013.22 1013.75 1014.06 1013.76 1014.02 1014.37 1014.89 1015.11 1014.85 1014.76
1001.26 1000.57 1000.77 1000.77 1000.73 1000.75 1001.21 1001.17 1001.19 1000.99 1000.50 999.83 998.85 998.04 996.77 996.18 996.20 997.03 997.89 998.62 999.25 999.76 1000.17 1000.80 1001.61 1002.68 1004.31 1006.31 1007.73 1009.20 1010.41 1011.28 1012.02 1012.59 1013.28 1013.65 1013.88 1014.21 1014.36 1014.43 1014.81 1014.44 1014.17 1014.19
1000.92 1000.70 1000.58 1001.25 1000.61 1001.27 1001.75 1001.56 1000.99 1000.66 999.85 998.48 998.37 997.61 996.58 996.18 996.64 996.30 997.29 998.19 999.27 1000.03 1000.61 1000.94 1001.44 1002.03 1003.09 1004.98 1006.59 1007.97 1009.61 1010.91 1011.74 1012.28 1012.81 1013.52 1013.95 1014.31 1014.47 1014.52 1014.17 1014.29 1014.17 1013.85
1000.09 999.77 999.73 1000.33 1000.67 1000.42 1000.87 1001.08 1000.22 999.83 998.73 997.67 997.29 996.60 996.13 996.25 996.90 998.08 998.63 999.27 999.98 1000.55 1000.78 1000.89 1001.18 1001.84 1002.44 1003.87 1005.69 1007.18 1008.75 1010.44 1011.32 1011.85 1012.35 1013.03 1013.58 1013.88 1013.93 1013.85 1014.07 1014.31 1014.22 1013.98
1000.68 999.62 998.94 999.00 999.90 1000.86 1000.11 999.97 1000.37 999.93 999.14 997.96 996.51 996.52 997.14 997.84 997.88 998.30 999.12 999.92 1000.20 1000.75 1001.19 1001.32 1001.50 1001.66 1002.23 1002.98 1005.01 1006.75 1008.08 1009.80 1010.63 1011.30 1011.96 1012.54 1013.10 1013.66 1013.70 1013.95 1014.25 1014.17 1014.01 1013.74
1002.44 1001.22 1000.13 999.33 1000.29 1000.11 1000.07 999.97 1000.01 1000.29 999.99 998.80 997.58 996.41 995.92 996.71 997.80 998.61 999.13 999.75 1000.35 1001.16 1001.40 1001.64 1001.80 1002.07 1002.48 1003.12 1004.98 1006.66 1007.88 1008.99 1009.78 1010.66 1011.43 1011.97 1012.59 1013.12 1013.39 1013.58 1013.72 1013.81 1013.81 1013.78
1004.00 1002.87 1001.73 1000.63 999.86 1000.18 1000.29 1000.43 1000.38 1000.49 1000.48 999.60 998.26 996.82 996.12 996.20 997.26 998.04 999.14 999.69 1000.40 1000.87 1000.99 1001.72 1002.10 1002.89 1003.37 1004.08 1005.18 1006.65 1007.63 1008.26 1009.21 1010.06 1010.75 1011.39 1011.93 1012.40 1012.84 1013.09 1013.23 1013.28 1013.28 1013.22
1005.61 1004.42 1002.53 1001.00 1000.30 999.93 1000.18 1000.23 1000.40 1000.73 1000.65 1000.03 998.88 997.45 996.88 997.23 997.65 998.47 999.17 999.91 1000.65 1000.95 1001.14 1001.57 1002.28 1003.08 1003.55 1004.33 1005.05 1006.24 1007.11 1007.69 1008.35 1009.26 1010.09 1010.72 1011.34 1011.97 1012.41 1012.67 1012.74 1012.78 1012.67 1012.54
1009.15 1006.68 1004.72 1002.69 1001.64 1000.63 1000.84 1000.50 1000.77 1000.67 1000.80 1000.14 999.25 997.80 997.47 997.85 998.46 999.03 999.77 1000.08 1000.79 1001.30 1001.27 1001.48 1002.03 1002.80 1003.30 1003.88 1004.53 1005.18 1006.54 1007.20 1007.71 1008.39 1009.22 1010.03 1010.83 1011.36 1011.68 1011.92 1012.06 1012.13 1012.01 1011.82
1011.37 1009.38 1007.19 1004.48 1002.45 1001.97 1001.31 1001.30 1001.19 1001.11 1000.70 1000.62 999.29 998.40 998.11 997.85 998.38 999.31 999.92 1000.32 1000.59 1001.06 1001.46 1001.59 1001.85 1002.29 1002.98 1003.67 1004.27 1004.96 1005.64 1006.54 1007.48 1008.10 1008.70 1009.38 1010.10 1010.68 1011.08 1011.35 1011.48 1011.48 1011.36 1011.17
1012.03 1010.56 1009.42 1007.37 1005.91 1004.43 1003.25 1003.22 1002.21 1002.23 1001.21 999.99 999.66 998.95 998.36 998.43 998.91 999.71 1000.92 1000.93 1000.46 1000.83 1001.23 1001.76 1002.14 1002.27 1002.50 1003.12 1003.90 1004.58 1005.15 1005.93 1006.80 1007.63 1008.38 1009.11 1009.76 1010.29 1010.58 1010.69 1010.75 1010.77 1010.74 1010.66
1012.46 1011.37 1011.04 1009.00 1007.73 1006.44 1005.00 1004.20 1003.53 1002.79 1002.25 1001.20 1000.54 999.96 999.70 999.57 999.66 1000.54 1001.04 1001.38 1001.40 1001.37 1001.40 1001.40 1001.63 1002.03 1002.46 1002.87 1003.14 1003.72 1004.93 1005.85 1006.59 1007.47 1008.29 1008.94 1009.32 1009.62 1009.87 1010.02 1010.08 1010.15 1010.18 1010.16
1013.71 1013.06 1012.26 1010.20 1009.18 1007.81 1006.28 1005.38 1003.98 1003.38 1003.09 1002.58 1001.37 1000.97 1001.35 1000.90 1000.88 1000.79 1001.03 1001.27 1001.45 1001.52 1001.80 1001.77 1001.57 1001.56 1002.10 1002.60 1002.93 1003.48 1004.54 1005.84 1006.67 1007.40 1008.23 1008.64 1008.90 1009.11 1009.27 1009.31 1009.46 1009.59 1009.68 1009.98
1013.50 1013.42 1012.90 1011.57 1010.77 1008.66 1007.05 1006.02 1005.20 1004.37 1003.74 1003.23 1002.71 1002.28 1002.57 1002.29 1002.14 1001.89 1001.91 1001.94 1002.14 1002.25 1002.35 1002.30 1002.06 1001.93 1001.90 1002.10 1002.43 1003.49 1004.72 1005.69 1006.59 1007.48 1008.01 1008.29 1008.57 1008.71 1008.91 1009.05 1009.14 1009.32 1009.48 1009.62
1012.07 1012.49 1012.56 1012.18 1010.65 1009.45 1007.83 1006.44 1005.36 1004.47 1004.03 1004.23 1004.22 1003.84 1003.81 1003.37 1003.06 1002.54 1002.90 1002.77 1002.67 1003.03 1003.06 1002.70 1002.41 1002.13 1002.01 1002.24 1002.66 1003.87 1005.08 1005.92 1006.90 1007.34 1007.73 1008.05 1008.42 1008.78 1008.88 1008.90 1009.09 1009.17 1009.20 1008.89
1011.17 1011.70 1012.27 1011.83 1010.47 1008.99 1007.65 1006.89 1006.69 1005.92 1004.35 1005.21 1004.97 1004.58 1004.57 1004.40 1003.18 1002.77 1002.89 1003.37 1003.33 1003.58 1003.75 1003.58 1003.16 1002.55 1002.46 1002.66 1003.42 1004.65 1005.63 1006.35 1006.71 1007.10 1007.56 1008.23 1008.62 1008.84 1009.06 1009.40 1009.31 1009.13 1008.87 1008.15
1010.78 1011.09 1011.41 1011.35 1010.28 1008.70 1007.51 1006.21 1005.63 1005.34 1005.21 1005.30 1005.30 1004.61 1004.42 1004.09 1004.13 1004.25 1004.05 1004.10 1004.18 1004.08 1004.03 1003.81 1003.50 1002.88 1002.42 1003.21 1004.54 1005.69 1006.13 1006.49 1006.88 1007.51 1008.04 1008.31 1008.45 1008.91 1009.41 1009.34 1009.13 1008.74 1008.06 1007.37
1010.60 1010.89 1010.63 1010.63 1009.65 1008.54 1007.75 1007.03 1006.46 1006.11 1005.96 1006.18 1006.03 1005.39 1005.28 1004.35 1004.07 1004.13 1004.43 1004.80 1004.50 1004.03 1003.86 1003.23 1002.98 1002.85 1003.16 1004.48 1005.82 1006.28 1006.62 1007.06 1007.74 1007.95 1008.16 1008.37 1008.92 1009.09 1008.90 1008.70 1008.38 1007.93 1007.38 1006.70
1010.21 1010.15 1009.87 1009.65 1008.96 1008.14 1007.77 1007.43 1007.53 1007.78 1008.67 1007.50 1007.10 1006.85 1006.69 1005.03 1004.59 1004.78 1004.81 1004.94 1004.83 1004.02 1003.61 1003.34 1002.68 1003.64 1004.66 1005.79 1006.49 1006.68 1007.05 1007.82 1008.00 1008.11 1008.63 1008.91 1008.83 1008.44 1008.17 1008.03 1007.80 1007.27 1006.44 1005.85
1008.58 1008.60 1008.43 1008.58 1007.87 1007.29 1006.92 1006.34 1006.06 1006.11 1007.47 1006.79 1006.84 1006.15 1005.95 1005.26 1004.76 1004.92 1005.07 1004.99 1004.67 1004.19 1003.59 1002.73 1003.41 1004.36 1005.42 1006.47 1007.02 1007.32 1007.79 1008.14 1008.23 1008.53 1008.64 1008.50 1008.29 1007.99 1007.88 1007.72 1007.22 1006.65 1006.22 1005.91
1008.54 1008.45 1007.85 1007.22 1006.55 1006.09 1005.83 1005.44 1005.44 1006.46 1005.77 1005.52 1005.39 1005.03 1004.93 1004.57 1004.66 1005.04 1004.79 1004.79 1004.64 1004.13 1004.07 1003.69 1003.68 1004.50 1005.70 1006.64 1007.20 1007.66 1008.06 1008.34 1008.38 1008.68 1008.53 1008.32 1007.90 1007.81 1007.62 1007.21 1006.90 1006.64 1006.24 1006.27
1007.42 1007.38 1007.32 1005.91 1005.44 1004.95 1005.03 1004.89 1004.83 1004.79 1004.71 1005.02 1004.51 1004.44 1004.20 1004.13 1004.56 1004.22 1004.27 1004.24 1004.59 1004.48 1004.44 1004.27 1003.89 1004.65 1005.99 1006.89 1007.42 1007.87 1008.36 1008.78 1008.77 1008.55 1008.44 1008.23 1008.17 1007.77 1007.47 1007.14 1006.37 1006.02 1006.12 1006.17
Wind_Speed
17 15 17 20 20 21 22 20 21 20 17 19 20 20 21 19 13 14 18 17 18 17 17 17 17 17 17 16 15 14 13 11 8 7 6 5 5 3 2 1 1 3 4 6
17 16 18 19 18 20 22 21 20 17 17 8 14 20 21 21 19 20 19 18 19 19 18 20 20 18 18 18 16 15 14 13 10 7 3 2 1 1 3 2 1 3 4 6
19 13 6 16 10 15 17 20 20 18 13 9 15 22 22 19 20 19 19 18 19 20 21 19 22 21 19 19 18 16 15 14 11 8 5 4 2 4 7 6 4 3 5 6
17 18 9 14 17 17 19 19 17 19 18 14 19 18 24 24 23 22 18 18 19 19 20 20 21 22 21 20 19 18 16 14 13 10 8 6 4 3 3 4 2 4 6 6
16 17 12 16 17 15 16 15 17 18 14 19 21 15 14 12 26 23 21 21 20 20 21 22 22 22 22 20 19 18 17 15 13 12 8 7 7 4 4 3 4 6 8 7
18 13 11 15 17 13 7 9 12 13 15 17 23 21 14 15 20 18 16 19 21 21 22 22 22 23 22 20 19 19 18 15 14 13 11 8 5 5 5 4 6 7 6 7
20 23 16 14 12 9 13 12 11 13 15 19 20 21 15 3 5 4 12 8 4 7 11 12 15 16 21 21 21 19 19 17 16 14 12 11 9 7 6 7 6 7 8 7
18 20 25 18 21 17 20 18 11 17 14 17 23 17 15 11 13 8 5 7 3 6 11 13 14 15 19 21 21 20 20 16 16 15 13 11 10 7 8 7 7 7 8 9
17 23 14 21 20 19 21 16 20 21 18 14 10 14 9 4 5 5 9 8 7 2 3 7 10 12 15 19 19 18 17 17 17 15 12 11 10 9 8 7 7 8 8 9
11 18 19 13 11 17 19 17 13 9 16 20 17 19 10 20 17 16 16 10 7 3 3 3 6 6 9 13 16 17 16 17 17 15 12 10 10 10 9 8 10 11 11 12
13 15 18 23 15 19 16 16 15 12 15 16 15 15 18 15 11 10 9 11 6 3 4 6 6 9 10 12 16 15 17 17 15 14 12 12 10 10 9 9 10 11 11 12
8 10 19 26 25 18 19 23 23 14 21 15 15 14 9 5 3 3 9 7 3 1 5 8 9 10 12 14 16 17 15 15 15 13 12 12 10 10 10 10 11 12 13 13
14 7 15 20 19 20 16 20 18 16 15 22 18 16 18 11 11 8 9 4 8 5 4 7 10 11 12 13 13 15 15 14 12 13 13 11 11 11 11 11 11 12 13 14
8 12 17 16 20 17 25 21 23 22 18 20 22 22 23 14 7 7 10 13 10 10 7 8 8 9 11 11 12 13 13 13 12 11 11 9 10 10 11 11 12 13 14 14
7 19 21 23 26 27 24 24 15 16 19 23 22 26 22 20 11 6 13 13 10 11 10 10 10 9 9 12 13 12 12 12 11 11 10 10 9 10 11 12 13 13 13 14
16 19 21 27 26 25 27 25 23 21 26 22 22 24 25 23 20 12 9 10 10 11 13 13 14 15 14 13 12 13 12 11 10 10 10 10 11 11 12 12 13 13 14 14
18 16 17 20 23 26 26 29 31 30 27 23 25 24 21 23 22 19 17 16 16 15 13 17 14 11 11 13 14 12 11 11 11 10 10 11 11 12 12 12 13 14 14 13
21 21 18 19 20 24 15 22 26 26 26 26 25 25 24 26 25 24 21 19 18 18 18 17 17 15 15 14 14 8 9 11 10 10 11 11 11 11 11 12 13 13 12 13
24 20 17 18 19 20 24 24 21 19 20 17 19 24 24 23 21 21 18 19 16 15 18 16 17 16 13 14 5 8 10 9 9 10 10 9 9 11 12 13 13 13 13 15
14 18 16 17 18 22 23 27 26 25 22 21 20 22 22 20 16 12 11 12 13 13 12 14 17 19 16 9 6 8 10 10 10 8 7 7 9 10 12 12 14 13 14 15
14 13 15 14 16 18 23 19 11 22 16 11 16 18 17 20 17 19 17 15 15 16 17 18 17 18 11 7 7 8 9 9 5 3 6 7 9 8 10 12 12 12 14 16
15 12 14 15 11 9 14 20 23 14 10 14 18 17 18 16 14 13 6 11 18 17 20 19 17 13 4 8 7 9 7 2 3 5 6 7 8 8 9 12 12 14 14 16
8 13 13 17 8 15 18 18 16 4 11 13 11 13 20 19 13 13 11 13 15 22 13 16 6 4 9 7 8 7 4 1 4 5 6 7 9 9 9 11 12 12 13 12
17 18 15 17 20 23 23 22 19 7 10 14 15 13 21 18 15 14 12 11 16 14 14 8 7 10 9 9 7 4 3 1 3 4 6 7 8 7 10 9 10 10 11 11
16 17 21 21 24 20 20 21 12 20 13 17 12 17 18 17 15 17 10 13 16 14 6 3 8 10 11 8 6 4 3 2 4 4 6 7 7 8 10 10 9 10 11 9
16 18 15 17 20 15 17 18 14 19 14 20 17 16 18 15 15 17 12 13 15 15 3 11 8 11 9 7 6 4 4 4 4 5 5 6 7 7 9 10 11 8 4 12
Wind_Direction
200 224 220 227 222 245 262 237 228 252 215 204 232 231 230 245 211 230 216 221 208 210 201 192 188 176 175 176 178 179 180 155 177 178 191 172 203 136 246 254 48 343 346 335
237 227 250 235 236 226 244 258 258 236 223 221 245 241 243 236 221 212 226 225 219 204 209 194 183 188 188 186 182 184 183 172 192 191 220 350 40 188 351 329 73 275 278 306
233 230 202 252 226 244 237 240 239 248 222 221 247 257 246 235 239 234 235 229 228 214 207 205 187 194 194 190 188 190 186 177 192 199 159 162 176 223 221 178 239 103 302 295
239 242 214 246 235 218 239 222 245 249 230 223 208 250 229 231 227 226 219 228 225 215 206 207 204 192 200 197 190 195 190 182 190 187 185 212 267 299 25 273 331 307 269 296
234 230 227 237 232 231 243 263 211 240 238 243 251 233 260 249 210 219 217 222 220 215 210 215 213 204 197 199 192 196 190 188 190 182 225 183 228 235 236 286 301 293 255 245
251 269 239 240 234 237 254 239 251 245 240 233 235 242 233 241 207 201 213 213 221 222 222 219 216 211 189 198 201 190 189 191 197 188 194 208 239 243 278 293 307 283 311 301
230 241 221 241 244 197 232 227 228 221 224 236 234 237 243 267 356 201 200 180 179 230 242 247 244 229 189 193 200 192 190 195 198 190 190 198 212 227 250 259 274 300 290 299
231 228 222 200 229 228 202 229 218 234 236 238 217 231 240 263 153 161 157 187 204 238 248 234 224 222 218 191 198 198 184 196 200 199 198 199 210 225 234 239 277 292 300 299
258 255 267 214 200 229 244 208 248 265 275 275 268 190 221 150 240 175 185 216 215 195 270 250 251 243 216 190 188 198 188 195 204 203 201 203 210 227 264 282 276 273 284 287
261 270 269 228 226 232 240 267 225 231 253 252 250 256 209 183 187 187 204 191 151 167 177 201 219 207 206 175 173 194 189 198 205 201 201 209 215 226 238 254 264 276 280 279
271 257 248 262 200 235 219 240 249 253 227 243 253 249 241 182 168 174 191 174 155 174 140 143 161 164 185 169 174 184 199 202 199 200 206 214 225 231 241 255 266 273 277 276
291 268 245 238 253 236 234 254 225 231 241 251 260 252 111 63 119 156 174 142 267 200 155 144 146 163 172 172 182 184 201 207 202 200 208 221 225 236 249 259 268 276 277 278
353 262 258 250 247 253 254 236 248 260 231 232 244 240 258 258 195 178 221 243 187 218 211 167 161 166 178 177 189 185 192 210 217 206 213 217 233 242 252 263 270 274 277 277
320 268 275 263 256 247 239 235 245 239 244 226 243 246 244 244 169 201 212 213 223 197 218 238 194 189 189 200 199 209 212 205 214 225 228 241 246 255 266 276 278 278 277 278
268 276 277 271 276 282 284 258 237 270 270 238 244 253 247 256 226 60 26 301 222 221 212 223 240 254 234 209 216 230 230 225 225 228 236 245 255 261 268 276 281 283 282 281
291 272 273 273 269 264 269 269 274 257 244 252 256 261 276 292 300 295 275 263 272 285 291 271 228 224 233 255 254 216 227 245 236 229 243 250 255 265 271 275 278 280 283 287
275 278 277 276 272 265 256 253 254 257 260 260 253 256 266 268 275 276 277 269 264 264 255 277 273 248 243 254 257 247 217 226 230 230 241 251 260 270 276 279 285 285 287 296
254 258 265 264 271 263 261 256 254 263 264 267 273 273 276 278 282 285 290 291 290 286 286 285 276 278 267 271 257 222 220 217 221 227 244 258 270 279 286 285 285 289 289 282
227 239 249 255 258 265 261 260 260 256 260 259 265 270 274 281 288 279 277 267 269 285 284 284 282 286 288 284 227 208 212 210 216 233 252 269 287 291 290 292 295 297 291 284
237 234 240 246 247 250 248 254 262 270 259 258 264 275 276 281 270 266 262 331 312 307 302 307 304 280 273 277 218 188 209 208 222 241 275 303 289 294 299 302 291 296 288 283
268 261 241 251 249 253 258 270 287 232 249 262 275 268 272 253 260 276 290 288 285 292 288 286 288 283 266 229 152 209 214 220 238 303 284 287 290 313 294 291 292 288 286 288
257 260 263 262 265 261 245 263 260 286 307 295 307 294 294 287 305 291 308 288 295 273 267 274 268 255 231 124 176 212 214 224 292 292 289 313 315 300 293 291 292 291 292 287
271 273 270 261 263 305 298 291 308 137 295 283 289 295 293 273 278 280 292 317 297 282 285 282 230 134 123 154 208 203 178 251 291 310 330 302 294 292 296 300 297 292 292 299
266 252 244 254 253 256 262 268 268 289 271 248 247 262 270 292 291 303 296 302 284 299 282 219 157 147 155 180 182 196 154 9 335 320 304 304 301 313 299 307 292 305 307 312
268 277 269 261 251 253 259 269 264 279 287 284 263 263 252 269 252 253 274 269 281 293 293 273 158 163 167 171 166 138 80 353 348 321 314 309 306 321 310 295 312 304 303 328
269 268 260 257 265 267 250 261 267 265 257 252 277 280 280 274 266 272 271 275 275 292 234 232 162 139 151 168 138 119 66 15 341 324 327 331 318 317 312 312 308 304 302 306